Погода в Бадаре

Россия / Иркутская область     54°23′52″N   100°35′50″E
темп.,
°C
ветер,
м/с
пор.,
м/с
влажн.,
%
обл.,
%
осадки,
мм/ч
давл.,
гПа
погр.,
м
8 мая, сб
сб823:00+6ююв41165100 0.0 1010450
02:00+4ююв41085100 2.6 1009465
05:00+3ююв3793100 3.3 1011306
08:00+6зсз268513 3.3 1012346
11:00+12сз6115461 0.0 10111964
14:00+14сз594169 0.1 10102248
17:00+12сз4652100 0.1 10101100
20:00+8юз4782100 0.8 1012286
9 мая, вс
вс923:00+7сз4891100 2.2 1013818
02:00+5зюз259054 2.9 1012119
05:00+5зюз2494100 0.1 1011106
08:00+6сз4884100 1.3 1011782
11:00+7зсз5869100 0.4 10111376
14:00+10сз594798 0.6 10102192
17:00+9ссз575097 0.1 10101761
20:00+6ссз48685 0.2 1012729
10 мая, пн
пн1023:00+3сз498325 0.1 1015459
02:00+3зсз6128994 0.2 1015850
05:00+2зсз61397100 1.6 1015632
08:00+1сз51297100 5.9 1016551
11:00+2сз51197100 0.6 1018511
14:00+3сз4997100 0.7 1019501
17:00+4сз4896100 0.3 1020476
20:00+5сз4884100 0.3 1020531
11 мая, вт
вт1123:00+4зсз4109399 0.1 1020385
02:00+3зсз499688 0.4 1020282
05:00+2зсз269890 0.1 1021178
08:00+5сз238992 0.1 1020363
11:00+9зсз226953 0.2 1019864
14:00+10зсз215994 0.8 10171259
17:00+11ссв115450 0.1 10161083
20:00+9юз006364 0.1 101510
12 мая, ср
ср1223:00+6всв116828 0.0 101510
02:00+4зюз00765 0.0 101410
05:00+3сз118233 0.0 101410
08:00+7с236993 0.0 1013219
11:00+10с235971 0.1 10121085
14:00+10с555890 1.0 10121275
17:00+10ссв5658100 0.1 10121349
20:00+8с4757100 0.2 1014481